Tracking 30070 objects as of 16-Jan-2025
HD Live streaming from Space Station
objects crossing your sky now

STARLINK-2192

Track STARLINK-2192 now!
10-day predictions
STARLINK-2192 is classified as:


NORAD ID: 47769
Int'l Code: 2021-017AZ
Perigee: 234.7 km
Apogee: 242.4 km
Inclination: 53.0 °
Period: 89.1 minutes
Semi major axis: 6609 km
RCS: Unknown
Launch date: March 4, 2021
Source: United States (US)
Launch site: AIR FORCE EASTERN TEST RANGE (AFETR)
Your satellite tracking list
Your tracking list is empty




NASA's NSSDC Master Catalog

Two Line Element Set (TLE):
1 47769U 21017AZ  25015.85340016  .01801337  30233-2  13277-2 0  9992
2 47769  53.0284 237.2912 0005849 271.1742 202.2214 16.15636259214816
Source of the keplerian elements: AFSPC